Back to catalog

STARLINK-4421

AliveCommunicationsSSO
NORAD 53488·PAYLOAD·🇺🇸 United States

Launched Aug 12, 2022 from Vandenberg Space Force Base

Loading…

Next Passes (next 24 hours)

TLE

FreshSource: CelesTrak SupGP

Epoch: Sep 14, 2026, 13:18 UTC

1 53488C 22099Z   26257.55465278 -.00026395  00000+0 -82015-3 0  2576
2 53488  97.2857  15.3458 0000931  91.8857 161.1084 15.33422385    13

Track STARLINK-4421 in real time with AllMySat

Download on the App Store